TimePDT,TemperatureF,Dew PointF,Humidity,Sea Level PressureIn,VisibilityMPH,Wind Direction,Wind SpeedMPH,Gust SpeedMPH,PrecipitationIn,Events,Conditions,WindDirDegrees,DateUTC
12:56 AM,37.0,34.0,89,30.06,10.0,Calm,Calm,-,N/A,,Clear,0,2013-05-18 07:56:00
1:56 AM,34.0,32.0,92,30.07,10.0,Calm,Calm,-,N/A,,Partly Cloudy,0,2013-05-18 08:56:00
2:56 AM,32.0,30.0,92,30.08,10.0,Calm,Calm,-,N/A,,Clear,0,2013-05-18 09:56:00
3:56 AM,30.0,28.0,92,30.09,10.0,Calm,Calm,-,N/A,,Clear,0,2013-05-18 10:56:00
4:26 AM,30.2,30.2,100,30.06,10.0,Calm,Calm,-,N/A,,Overcast,0,2013-05-18 11:26:00
4:33 AM,32.0,30.2,93,30.06,10.0,Calm,Calm,-,N/A,,Overcast,0,2013-05-18 11:33:00
4:56 AM,33.1,30.9,92,30.09,10.0,Calm,Calm,-,N/A,,Overcast,0,2013-05-18 11:56:00
5:56 AM,34.0,32.0,92,30.10,10.0,Calm,Calm,-,N/A,,Overcast,0,2013-05-18 12:56:00
6:56 AM,37.9,35.1,89,30.09,10.0,Calm,Calm,-,N/A,,Overcast,0,2013-05-18 13:56:00
7:56 AM,45.0,37.0,74,30.09,10.0,Calm,Calm,-,N/A,,Scattered Clouds,0,2013-05-18 14:56:00
8:06 AM,44.6,35.6,71,30.08,10.0,Calm,Calm,-,N/A,,Mostly Cloudy,0,2013-05-18 15:06:00
8:36 AM,44.6,35.6,71,30.09,10.0,Calm,Calm,-,N/A,,Overcast,0,2013-05-18 15:36:00
8:56 AM,45.0,36.0,71,30.10,10.0,West,4.6,-,N/A,,Overcast,280,2013-05-18 15:56:00
9:12 AM,46.4,35.6,66,30.09,10.0,Variable,3.5,-,N/A,,Overcast,0,2013-05-18 16:12:00
9:56 AM,46.9,36.0,66,30.10,10.0,Calm,Calm,-,N/A,,Mostly Cloudy,0,2013-05-18 16:56:00
10:03 AM,46.4,35.6,66,30.09,10.0,Variable,3.5,-,N/A,,Overcast,0,2013-05-18 17:03:00
10:18 AM,48.2,35.6,62,30.09,10.0,Variable,4.6,-,N/A,,Mostly Cloudy,0,2013-05-18 17:18:00
10:56 AM,48.9,35.1,59,30.10,10.0,Calm,Calm,-,N/A,,Overcast,0,2013-05-18 17:56:00
11:56 AM,50.0,34.0,54,30.11,10.0,Variable,4.6,-,N/A,,Overcast,0,2013-05-18 18:56:00
12:56 PM,54.0,34.0,47,30.10,10.0,Variable,3.5,-,N/A,,Mostly Cloudy,0,2013-05-18 19:56:00
2:56 PM,53.1,35.1,50,30.13,10.0,Variable,3.5,-,N/A,,Mostly Cloudy,0,2013-05-18 21:56:00
3:56 PM,46.9,42.1,83,30.17,8.0,Variable,5.8,-,0.00,Rain,Light Rain,0,2013-05-18 22:56:00
4:48 PM,46.4,42.8,87,30.13,7.0,Calm,Calm,-,0.03,Rain,Light Rain,0,2013-05-18 23:48:00
4:56 PM,46.9,43.0,86,30.18,9.0,Calm,Calm,-,0.03,Rain,Light Rain,0,2013-05-18 23:56:00
5:04 PM,46.4,42.8,87,30.13,10.0,Calm,Calm,-,0.00,Rain,Light Rain,0,2013-05-19 00:04:00
5:56 PM,46.9,43.0,86,30.17,6.0,Calm,Calm,-,0.00,Rain,Light Rain,0,2013-05-19 00:56:00
6:56 PM,46.9,42.1,83,30.17,10.0,Calm,Calm,-,0.01,,Overcast,0,2013-05-19 01:56:00
7:56 PM,46.0,43.0,89,30.15,8.0,Calm,Calm,-,0.00,Rain,Light Rain,0,2013-05-19 02:56:00
8:40 PM,46.4,44.6,93,30.15,4.0,Calm,Calm,-,0.04,Rain,Rain,0,2013-05-19 03:40:00
8:56 PM,46.0,43.0,89,30.17,10.0,Calm,Calm,-,0.05,,Overcast,0,2013-05-19 03:56:00
9:15 PM,44.6,42.8,93,30.16,10.0,Calm,Calm,-,N/A,,Overcast,0,2013-05-19 04:15:00
9:56 PM,44.1,42.1,93,30.19,10.0,Calm,Calm,-,0.00,,Overcast,0,2013-05-19 04:56:00
10:56 PM,44.1,39.9,85,30.19,10.0,Calm,Calm,-,N/A,,Overcast,0,2013-05-19 05:56:00
11:56 PM,43.0,39.9,89,30.21,9.0,Calm,Calm,-,0.00,Rain,Light Rain,0,2013-05-19 06:56:00